ARIANE 5 DEB (SYLDA), 27717

Orbit data source: Space-Track

ARIANE 5 DEB (SYLDA), 27717 is space debris in HEO originally from a launch on Wed, 09 Apr 2003 UTC launched from the French Guiana (FRGUI). Debris objects in space refer to the collection of defunct objects orbiting the Earth. Examples of debris include non-operational satellites, rocket bodies, and fragments generated from explosions, collisions, or faulty payload assembly.

Loading next visibility...
Identifier
27717, 2003-013D
Orbit
HEO
Country
Flag of FRFR
Related business
Manufacturer
Astrium
Mission
Spacecraft
Bus & Motor
SYLDA 5, Unknown motor
Mass
440 kg wet, 440 kg dry
Launch date (UTC)
2003-04-09 (23 years ago)
Launch vehicle
Unknown
Launch site
French Guiana (FRGUI)
Object type
Payload
Rocket body
Debris
Shape & HBR
Cyl, 2.5 m
Radar Cross Section
25.270 m², Large (>1 m²)

Expand to show TLE details & history
Last TLE update: 18 hours ago

TLE from 18 hours ago
0 ARIANE 5 DEB (SYLDA)
1 27717U 03013D   25314.82278906 -.00000181  00000-0 -28579-2 0  9993
2 27717   1.9280 323.3867 7074360 202.9422 298.7723  2.22493090183669
Epoch: 2025-11-10T19:44Z
TLE epoch observation values (Epoch: 2025-11-10T19:44:48.974Z)
Latitude
1.6939°
Longitude
37.60292°
Altitude
21,782.492 km
Speed
3.497 km/s
True Right ascension
01h 36m 06s
True Declination
1° 41' 29"
Sunlit
Object was in daylight at epoch
Visualization orbit readout
Latitude
Unknown
Longitude
Unknown
Altitude
Unknown
Speed
Unknown
Apparent Right ascension
Unknown
Apparent Declination
Unknown
Sunlit
N/A
Visualization observer readout
Local Sidereal Time
09:38:45
Azimuth
Unknown
Elevation
Unknown
Doppler factor
Unknown
Orbital elements
Apogee altitude
35,949.455 km
Perigee altitude
874.568 km
Semi-major axis
24,790.149 km
Eccentricity
0.70744
Inclination
1.928°
RAAN
323.3867°
Arg. of periapsis
202.9422°
True anomaly
217.67317°
Mean anomaly
298.7723°
Eccentric anomaly
258.98582°
Mean motion
0.55606 °/min
Orbital period
647.41 mins
BSTAR
-0.0028579
Loading maneuver chart data...
Computing Atmospheric mass density...
Loading historical data...
Loading historical data...
Loading historical data...
Loading historical data...
Loading historical data...
Loading historical data...
Loading historical data...
Other satellites on launch #13 in the year 2003 (2003-04-09 UTC)

Documentation

Showing up to 5 results
|